| time (UTC) | temp C | wind direction | speed KPH | gust KPH | rain 1hr cm | rain 24hr cm | rain mn cm | humidity % | barometer mb |
| 20260505140507 | 23 | 198 | 0.0 | 4.8 | 0.00 | 0.00 | 0.00 | 89 | 1009.4 |
| 20260505125004 | 21 | 212 | 0.0 | 6.4 | 0.00 | 0.00 | 0.00 | 92 | 1009.3 |
| 20260505124531 | 21 | 238 | 0.0 | 6.4 | 0.00 | 0.00 | 0.00 | 92 | 1009.2 |
| 20260505124007 | 21 | 299 | 0.0 | 1.6 | 0.00 | 0.00 | 0.00 | 93 | 1008.9 |
| 20260505123504 | 21 | 266 | 0.0 | 1.6 | 0.00 | 0.00 | 0.00 | 93 | 1008.7 |
| 20260505123023 | 21 | 188 | 0.0 | 4.8 | 0.00 | 0.00 | 0.00 | 93 | 1008.8 |
| 20260505122505 | 21 | 221 | 0.0 | 8.0 | 0.00 | 0.00 | 0.00 | 93 | 1008.9 |
| 20260505122007 | 21 | 229 | 0.0 | 8.0 | 0.00 | 0.00 | 0.00 | 93 | 1008.9 |
| 20260505121523 | 21 | 101 | 1.6 | 4.8 | 0.00 | 0.00 | 0.00 | 93 | 1009.0 |
| 20260505121003 | 21 | 273 | 0.0 | 6.4 | 0.00 | 0.00 | 0.00 | 93 | 1009.1 |
| 20260505120513 | 21 | 272 | 0.0 | 6.4 | 0.00 | 0.00 | 0.00 | 93 | 1009.0 |
| 20260505120020 | 21 | 260 | 0.0 | 1.6 | 0.00 | 0.00 | 0.00 | 92 | 1009.0 |
| 20260505115504 | 21 | 217 | 0.0 | 1.6 | 0.00 | 0.00 | 0.00 | 92 | 1008.8 |
| 20260505115013 | 21 | 208 | 0.0 | 1.6 | 0.00 | 0.00 | 0.00 | 92 | 1008.7 |
| 20260505114517 | 21 | 198 | 0.0 | 1.6 | 0.00 | 0.00 | 0.00 | 92 | 1008.6 |
| 20260505114012 | 21 | 244 | 0.0 | 3.2 | 0.00 | 0.00 | 0.00 | 92 | 1008.5 |
| 20260505113507 | 21 | 233 | 0.0 | 3.2 | 0.00 | 0.00 | 0.00 | 92 | 1008.5 |
| 20260505113019 | 21 | 244 | 0.0 | 3.2 | 0.00 | 0.00 | 0.00 | 92 | 1008.6 |
| 20260505112509 | 21 | 254 | 0.0 | 3.2 | 0.00 | 0.00 | 0.00 | 92 | 1009.0 |
| 20260505112004 | 21 | 217 | 0.0 | 1.6 | 0.00 | 0.00 | 0.00 | 92 | 1008.9 |
| 20260505111528 | 21 | 221 | 0.0 | 1.6 | 0.00 | 0.00 | 0.00 | 92 | 1008.8 |
| 20260505111010 | 21 | 221 | 0.0 | 4.8 | 0.00 | 0.00 | 0.00 | 92 | 1008.8 |
| 20260505110504 | 21 | 220 | 0.0 | 4.8 | 0.00 | 0.00 | 0.00 | 92 | 1008.8 |
| 20260505102010 | 20 | 221 | 0.0 | 1.6 | 0.00 | 0.00 | 0.00 | 92 | 1008.9 |
| 20260505101532 | 20 | 221 | 0.0 | 1.6 | 0.00 | 0.00 | 0.00 | 92 | 1009.0 |
| 20260505101007 | 20 | 121 | 0.0 | 0.0 | 0.00 | 0.00 | 0.00 | 92 | 1008.8 |
| 20260505100506 | 20 | 226 | 0.0 | 1.6 | 0.00 | 0.00 | 0.00 | 92 | 1008.7 |
| 20260505100023 | 20 | 226 | 0.0 | 1.6 | 0.00 | 0.00 | 0.00 | 92 | 1008.8 |
| 20260505095510 | 20 | 190 | 0.0 | 1.6 | 0.00 | 0.00 | 0.00 | 92 | 1008.8 |
| 20260505095008 | 20 | 194 | 0.0 | 1.6 | 0.00 | 0.00 | 0.00 | 92 | 1009.0 |
| 20260505094520 | 20 | 321 | 0.0 | 1.6 | 0.00 | 0.00 | 0.00 | 92 | 1008.9 |
| 20260505094011 | 20 | 257 | 0.0 | 1.6 | 0.00 | 0.00 | 0.00 | 92 | 1008.9 |
| 20260505093509 | 20 | 259 | 0.0 | 1.6 | 0.00 | 0.00 | 0.00 | 92 | 1008.9 |
| 20260505093035 | 20 | 259 | 0.0 | 0.0 | 0.00 | 0.00 | 0.00 | 91 | 1008.9 |
| 20260505092510 | 20 | 259 | 0.0 | 1.6 | 0.00 | 0.00 | 0.00 | 91 | 1008.9 |
| 20260505092008 | 20 | 259 | 0.0 | 1.6 | 0.00 | 0.00 | 0.00 | 91 | 1009.0 |
| 20260505091527 | 20 | 226 | 0.0 | 1.6 | 0.00 | 0.00 | 0.00 | 91 | 1009.1 |
| 20260505091003 | 20 | 271 | 0.0 | 1.6 | 0.00 | 0.00 | 0.00 | 91 | 1009.2 |
| 20260505090504 | 20 | 271 | 0.0 | 1.6 | 0.00 | 0.00 | 0.00 | 91 | 1009.2 |
| 20260505090014 | 20 | 283 | 0.0 | 1.6 | 0.00 | 0.00 | 0.00 | 91 | 1009.2 |
| 20260505085503 | 20 | 229 | 0.0 | 1.6 | 0.00 | 0.00 | 0.00 | 91 | 1009.2 |
| 20260505085009 | 20 | 218 | 0.0 | 4.8 | 0.00 | 0.00 | 0.00 | 91 | 1009.2 |
| 20260505084508 | 20 | 217 | 0.0 | 4.8 | 0.00 | 0.00 | 0.00 | 90 | 1009.2 |
| 20260505084008 | 20 | 204 | 0.0 | 4.8 | 0.00 | 0.00 | 0.00 | 90 | 1009.2 |
| 20260505083513 | 20 | 203 | 0.0 | 4.8 | 0.00 | 0.00 | 0.00 | 90 | 1009.2 |
| 20260505083011 | 20 | 212 | 0.0 | 3.2 | 0.00 | 0.00 | 0.00 | 90 | 1009.2 |
| 20260505082503 | 20 | 195 | 0.0 | 1.6 | 0.00 | 0.00 | 0.00 | 90 | 1009.4 |
| 20260505082003 | 20 | 224 | 0.0 | 1.6 | 0.00 | 0.00 | 0.00 | 89 | 1009.6 |
| 20260505081507 | 20 | 174 | 0.0 | 1.6 | 0.00 | 0.00 | 0.00 | 89 | 1009.6 |
| 20260505081008 | 20 | 238 | 0.0 | 3.2 | 0.00 | 0.00 | 0.00 | 89 | 1009.5 |
| 20260505080504 | 20 | 236 | 0.0 | 3.2 | 0.00 | 0.00 | 0.00 | 89 | 1009.5 |
| 20260505080018 | 21 | 205 | 0.0 | 3.2 | 0.00 | 0.00 | 0.00 | 89 | 1009.6 |
| 20260505075507 | 21 | 225 | 0.0 | 3.2 | 0.00 | 0.00 | 0.00 | 89 | 1009.8 |
| 20260505075003 | 20 | 233 | 0.0 | 3.2 | 0.00 | 0.00 | 0.00 | 89 | 1009.9 |
| 20260505074517 | 20 | 214 | 0.0 | 3.2 | 0.00 | 0.00 | 0.00 | 89 | 1009.7 |
| 20260505074006 | 20 | 231 | 0.0 | 1.6 | 0.00 | 0.00 | 0.00 | 89 | 1009.7 |
| 20260505073508 | 20 | 257 | 0.0 | 1.6 | 0.00 | 0.00 | 0.00 | 89 | 1009.8 |
| 20260505073018 | 20 | 274 | 0.0 | 1.6 | 0.00 | 0.00 | 0.00 | 89 | 1009.9 |
| 20260505072507 | 20 | 145 | 0.0 | 1.6 | 0.00 | 0.00 | 0.00 | 89 | 1009.8 |
| 20260505072007 | 20 | 215 | 0.0 | 1.6 | 0.00 | 0.00 | 0.00 | 88 | 1010.0 |
| 20260505071514 | 20 | 207 | 0.0 | 1.6 | 0.00 | 0.00 | 0.00 | 88 | 1010.0 |
| 20260505071003 | 20 | 130 | 0.0 | 3.2 | 0.00 | 0.00 | 0.00 | 88 | 1010.1 |
| 20260505070506 | 20 | 235 | 0.0 | 3.2 | 0.00 | 0.00 | 0.00 | 88 | 1010.1 |
| 20260505070012 | 20 | 203 | 0.0 | 3.2 | 0.00 | 0.00 | 0.00 | 88 | 1010.1 |
| 20260505065511 | 20 | 243 | 0.0 | 1.6 | 0.00 | 0.00 | 0.00 | 88 | 1010.2 |
| 20260505065005 | 20 | 232 | 0.0 | 1.6 | 0.00 | 0.00 | 0.00 | 88 | 1010.2 |
| 20260505064511 | 20 | 236 | 0.0 | 1.6 | 0.00 | 0.00 | 0.00 | 88 | 1010.3 |
| 20260505064007 | 20 | 241 | 0.0 | 1.6 | 0.00 | 0.00 | 0.00 | 88 | 1010.3 |
| 20260505063506 | 20 | 110 | 0.0 | 1.6 | 0.00 | 0.00 | 0.00 | 88 | 1010.3 |
| 20260505063013 | 20 | 155 | 0.0 | 1.6 | 0.00 | 0.00 | 0.00 | 88 | 1010.3 |
| 20260505062512 | 20 | 113 | 0.0 | 3.2 | 0.00 | 0.00 | 0.00 | 88 | 1010.5 |
| 20260505062004 | 20 | 205 | 0.0 | 3.2 | 0.00 | 0.00 | 0.00 | 88 | 1010.4 |
| 20260505061521 | 20 | 246 | 0.0 | 1.6 | 0.00 | 0.00 | 0.00 | 87 | 1010.4 |
| 20260505061008 | 20 | 117 | 0.0 | 6.4 | 0.00 | 0.00 | 0.00 | 87 | 1010.4 |
| 20260505060503 | 20 | 222 | 0.0 | 6.4 | 0.00 | 0.00 | 0.00 | 87 | 1010.5 |
| 20260505060023 | 20 | 124 | 0.0 | 6.4 | 0.00 | 0.00 | 0.00 | 87 | 1010.7 |
| 20260505055506 | 20 | 194 | 0.0 | 1.6 | 0.00 | 0.00 | 0.00 | 87 | 1010.7 |
| 20260505055003 | 20 | 276 | 0.0 | 3.2 | 0.00 | 0.00 | 0.00 | 87 | 1010.6 |
| 20260505054522 | 20 | 306 | 0.0 | 3.2 | 0.00 | 0.00 | 0.00 | 87 | 1010.7 |
| 20260505054006 | 20 | 126 | 0.0 | 3.2 | 0.00 | 0.00 | 0.00 | 86 | 1010.7 |
| 20260505053510 | 20 | 98 | 0.0 | 6.4 | 0.00 | 0.00 | 0.00 | 86 | 1010.7 |
| 20260505053020 | 20 | 97 | 0.0 | 6.4 | 0.00 | 0.00 | 0.00 | 86 | 1010.9 |
| 20260505052504 | 20 | 284 | 0.0 | 4.8 | 0.00 | 0.00 | 0.00 | 86 | 1010.9 |
| 20260505052009 | 20 | 284 | 0.0 | 4.8 | 0.00 | 0.00 | 0.00 | 86 | 1010.9 |
| 20260505051533 | 21 | 108 | 0.0 | 8.0 | 0.00 | 0.00 | 0.00 | 86 | 1011.0 |
| 20260505051009 | 21 | 148 | 0.0 | 8.0 | 0.00 | 0.00 | 0.00 | 85 | 1011.0 |
| 20260505050511 | 21 | 261 | 0.0 | 8.0 | 0.00 | 0.00 | 0.00 | 85 | 1011.1 |
| 20260505041527 | 21 | 195 | 0.0 | 12.9 | 0.00 | 0.00 | 0.00 | 83 | 1011.1 |
| 20260505041007 | 21 | 257 | 0.0 | 12.9 | 0.00 | 0.00 | 0.00 | 83 | 1011.1 |
| 20260505040504 | 21 | 131 | 0.0 | 4.8 | 0.00 | 0.00 | 0.00 | 83 | 1011.0 |
| 20260505040026 | 21 | 128 | 0.0 | 8.0 | 0.00 | 0.00 | 0.00 | 82 | 1010.9 |
| 20260505035503 | 21 | 97 | 0.0 | 8.0 | 0.00 | 0.00 | 0.00 | 82 | 1011.1 |
| 20260505035008 | 21 | 121 | 1.6 | 8.0 | 0.00 | 0.00 | 0.00 | 82 | 1011.3 |
| 20260505034524 | 21 | 214 | 0.0 | 8.0 | 0.00 | 0.00 | 0.00 | 81 | 1011.2 |
| 20260505034004 | 22 | 194 | 0.0 | 4.8 | 0.00 | 0.00 | 0.00 | 81 | 1011.1 |
| 20260505033511 | 22 | 111 | 0.0 | 9.7 | 0.00 | 0.00 | 0.00 | 81 | 1011.0 |
| 20260505033024 | 21 | 117 | 0.0 | 9.7 | 0.00 | 0.00 | 0.00 | 81 | 1011.2 |
| 20260505032505 | 21 | 222 | 3.2 | 9.7 | 0.00 | 0.00 | 0.00 | 81 | 1011.4 |
| 20260505032008 | 22 | 98 | 0.0 | 4.8 | 0.00 | 0.00 | 0.00 | 81 | 1011.4 |
| 20260505031520 | 22 | 117 | 0.0 | 4.8 | 0.00 | 0.00 | 0.00 | 81 | 1011.3 |
| 20260505031007 | 22 | 123 | 0.0 | 4.8 | 0.00 | 0.00 | 0.00 | 80 | 1011.3 |
| 20260505030508 | 22 | 251 | 0.0 | 9.7 | 0.00 | 0.00 | 0.00 | 80 | 1011.3 |
| 20260505030017 | 22 | 116 | 0.0 | 9.7 | 0.00 | 0.00 | 0.00 | 79 | 1011.1 |
| 20260505025513 | 22 | 155 | 0.0 | 4.8 | 0.00 | 0.00 | 0.00 | 79 | 1011.2 |
| 20260505025008 | 22 | 134 | 1.6 | 8.0 | 0.00 | 0.00 | 0.00 | 79 | 1011.1 |
| 20260505024526 | 22 | 238 | 1.6 | 8.0 | 0.00 | 0.00 | 0.00 | 79 | 1011.0 |
| 20260505024008 | 22 | 141 | 0.0 | 9.7 | 0.00 | 0.00 | 0.00 | 79 | 1010.9 |
| 20260505023505 | 22 | 124 | 1.6 | 9.7 | 0.00 | 0.00 | 0.00 | 79 | 1011.0 |
| 20260505023026 | 22 | 84 | 0.0 | 8.0 | 0.00 | 0.00 | 0.00 | 78 | 1011.0 |
| 20260505022506 | 22 | 101 | 0.0 | 8.0 | 0.00 | 0.00 | 0.00 | 78 | 1011.0 |
| 20260505022006 | 22 | 122 | 1.6 | 4.8 | 0.00 | 0.00 | 0.00 | 78 | 1011.0 |
| 20260505021526 | 22 | 129 | 1.6 | 9.7 | 0.00 | 0.00 | 0.00 | 78 | 1010.9 |
| 20260505021004 | 22 | 191 | 0.0 | 9.7 | 0.00 | 0.00 | 0.00 | 78 | 1010.9 |
| 20260505020509 | 22 | 200 | 1.6 | 8.0 | 0.00 | 0.00 | 0.00 | 78 | 1010.9 |
| 20260505020026 | 22 | 119 | 0.0 | 4.8 | 0.00 | 0.00 | 0.00 | 79 | 1010.8 |
| 20260505015512 | 22 | 254 | 1.6 | 4.8 | 0.00 | 0.00 | 0.00 | 79 | 1010.9 |
| 20260505015008 | 22 | 164 | 0.0 | 4.8 | 0.00 | 0.00 | 0.00 | 79 | 1010.9 |
| 20260505014525 | 22 | 235 | 0.0 | 3.2 | 0.00 | 0.00 | 0.00 | 79 | 1010.8 |
| 20260505014007 | 22 | 91 | 0.0 | 0.0 | 0.00 | 0.00 | 0.00 | 80 | 1010.8 |
| 20260505013509 | 22 | 158 | 0.0 | 0.0 | 0.00 | 0.00 | 0.00 | 80 | 1010.6 |
| 20260505013024 | 22 | 155 | 0.0 | 1.6 | 0.00 | 0.00 | 0.00 | 79 | 1010.6 |
| 20260505012506 | 22 | 245 | 0.0 | 1.6 | 0.00 | 0.00 | 0.00 | 79 | 1010.6 |
| 20260505012011 | 22 | 269 | 0.0 | 3.2 | 0.00 | 0.00 | 0.00 | 79 | 1010.6 |
| 20260505011522 | 22 | 269 | 0.0 | 3.2 | 0.00 | 0.00 | 0.00 | 78 | 1010.4 |
| 20260505011011 | 22 | 221 | 0.0 | 1.6 | 0.00 | 0.00 | 0.00 | 77 | 1010.3 |
| 20260505010508 | 23 | 176 | 0.0 | 1.6 | 0.00 | 0.00 | 0.00 | 77 | 1010.4 |
| 20260505010028 | 23 | 149 | 0.0 | 3.2 | 0.00 | 0.00 | 0.00 | 76 | 1010.6 |
| 20260505005513 | 23 | 229 | 0.0 | 4.8 | 0.00 | 0.00 | 0.00 | 75 | 1010.5 |
| 20260505005006 | 23 | 91 | 0.0 | 6.4 | 0.00 | 0.00 | 0.00 | 74 | 1010.4 |
| 20260505004528 | 23 | 206 | 0.0 | 6.4 | 0.00 | 0.00 | 0.00 | 74 | 1010.4 |
| 20260505004008 | 23 | 236 | 0.0 | 4.8 | 0.00 | 0.00 | 0.00 | 74 | 1010.6 |
| 20260505003511 | 23 | 187 | 1.6 | 8.0 | 0.00 | 0.00 | 0.00 | 73 | 1010.4 |
| 20260505003025 | 24 | 127 | 0.0 | 8.0 | 0.00 | 0.00 | 0.00 | 73 | 1010.4 |
| 20260505002510 | 24 | 262 | 1.6 | 8.0 | 0.00 | 0.00 | 0.00 | 73 | 1010.4 |
| 20260505002009 | 24 | 120 | 0.0 | 6.4 | 0.00 | 0.00 | 0.00 | 73 | 1010.4 |
| 20260505001528 | 24 | 187 | 1.6 | 6.4 | 0.00 | 0.00 | 0.00 | 73 | 1010.4 |
| 20260505001002 | 24 | 117 | 0.0 | 11.3 | 0.00 | 0.00 | 0.00 | 71 | 1010.4 |
| 20260505000506 | 24 | 121 | 0.0 | 11.3 | 0.00 | 0.00 | 0.00 | 71 | 1010.5 |
| 20260505000008 | 25 | 238 | 0.0 | 11.3 | 0.00 | 0.00 | 0.00 | 71 | 1010.6 |
| 20260504235502 | 25 | 162 | 3.2 | 11.3 | 0.00 | 0.00 | 0.00 | 70 | 1010.6 |
| 20260504235006 | 25 | 220 | 0.0 | 17.7 | 0.00 | 0.00 | 0.00 | 70 | 1010.6 |
| 20260504234504 | 25 | 203 | 0.0 | 17.7 | 0.00 | 0.00 | 0.00 | 70 | 1010.6 |
| 20260504234002 | 25 | 86 | 1.6 | 9.7 | 0.00 | 0.00 | 0.00 | 69 | 1010.6 |
| 20260504233502 | 25 | 118 | 0.0 | 4.8 | 0.00 | 0.00 | 0.00 | 69 | 1010.4 |
| 20260504233003 | 25 | 179 | 0.0 | 4.8 | 0.00 | 0.00 | 0.00 | 68 | 1010.6 |
| 20260504232506 | 25 | 115 | 0.0 | 6.4 | 0.00 | 0.00 | 0.00 | 67 | 1010.7 |
| 20260504232002 | 25 | 122 | 1.6 | 6.4 | 0.00 | 0.00 | 0.00 | 66 | 1010.7 |
| 20260504231503 | 26 | 184 | 0.0 | 6.4 | 0.00 | 0.00 | 0.00 | 67 | 1010.7 |
| 20260504231005 | 26 | 109 | 0.0 | 4.8 | 0.00 | 0.00 | 0.00 | 66 | 1010.8 |
| 20260504230502 | 26 | 167 | 0.0 | 9.7 | 0.00 | 0.00 | 0.00 | 66 | 1010.9 |
| 20260504230020 | 26 | 119 | 1.6 | 9.7 | 0.00 | 0.00 | 0.00 | 65 | 1010.9 |
| 20260504225504 | 26 | 102 | 1.6 | 6.4 | 0.00 | 0.00 | 0.00 | 65 | 1011.1 |
| 20260504225001 | 26 | 104 | 3.2 | 6.4 | 0.00 | 0.00 | 0.00 | 65 | 1011.2 |
| 20260504224515 | 26 | 85 | 1.6 | 6.4 | 0.00 | 0.00 | 0.00 | 64 | 1011.0 |
| 20260504224003 | 26 | 112 | 1.6 | 8.0 | 0.00 | 0.00 | 0.00 | 64 | 1011.0 |
| 20260504223503 | 26 | 122 | 1.6 | 8.0 | 0.00 | 0.00 | 0.00 | 64 | 1011.0 |
| 20260504223013 | 26 | 103 | 1.6 | 6.4 | 0.00 | 0.00 | 0.00 | 63 | 1011.2 |
| 20260504222504 | 26 | 71 | 1.6 | 8.0 | 0.00 | 0.00 | 0.00 | 64 | 1011.1 |
| 20260504222005 | 26 | 210 | 0.0 | 8.0 | 0.00 | 0.00 | 0.00 | 63 | 1011.2 |
| 20260504221510 | 26 | 109 | 1.6 | 8.0 | 0.00 | 0.00 | 0.00 | 64 | 1011.2 |
| 20260504221002 | 26 | 218 | 0.0 | 16.1 | 0.00 | 0.00 | 0.00 | 63 | 1011.3 |
| 20260504220506 | 26 | 210 | 0.0 | 16.1 | 0.00 | 0.00 | 0.00 | 63 | 1011.5 |
| 20260504220009 | 26 | 205 | 0.0 | 9.7 | 0.00 | 0.00 | 0.00 | 62 | 1011.4 |
| 20260504215502 | 26 | 120 | 3.2 | 9.7 | 0.00 | 0.00 | 0.00 | 60 | 1011.4 |
| 20260504215007 | 27 | 136 | 1.6 | 6.4 | 0.00 | 0.00 | 0.00 | 61 | 1011.5 |
| 20260504214504 | 27 | 98 | 1.6 | 8.0 | 0.00 | 0.00 | 0.00 | 60 | 1011.5 |
| 20260504214007 | 27 | 83 | 3.2 | 8.0 | 0.00 | 0.00 | 0.00 | 61 | 1011.6 |
| 20260504213503 | 27 | 188 | 0.0 | 4.8 | 0.00 | 0.00 | 0.00 | 61 | 1011.8 |
| 20260504213004 | 28 | 102 | 0.0 | 4.8 | 0.00 | 0.00 | 0.00 | 59 | 1011.7 |
| 20260504212506 | 28 | 122 | 0.0 | 4.8 | 0.00 | 0.00 | 0.00 | 58 | 1011.8 |
| 20260504212003 | 28 | 212 | 0.0 | 9.7 | 0.00 | 0.00 | 0.00 | 59 | 1011.9 |
| 20260504211503 | 27 | 121 | 1.6 | 9.7 | 0.00 | 0.00 | 0.00 | 58 | 1011.9 |
| 20260504211006 | 27 | 259 | 0.0 | 8.0 | 0.00 | 0.00 | 0.00 | 62 | 1012.0 |
| 20260504210503 | 27 | 239 | 1.6 | 6.4 | 0.00 | 0.00 | 0.00 | 59 | 1012.2 |
| 20260504210027 | 27 | 227 | 1.6 | 8.0 | 0.00 | 0.00 | 0.00 | 59 | 1012.1 |
| 20260504205506 | 28 | 105 | 1.6 | 8.0 | 0.00 | 0.00 | 0.00 | 59 | 1012.1 |
| 20260504205004 | 27 | 115 | 1.6 | 8.0 | 0.00 | 0.00 | 0.00 | 59 | 1012.2 |
| 20260504204519 | 27 | 186 | 0.0 | 4.8 | 0.00 | 0.00 | 0.00 | 60 | 1012.4 |
| 20260504204003 | 26 | 218 | 0.0 | 8.0 | 0.00 | 0.00 | 0.00 | 60 | 1012.6 |
| 20260504203510 | 27 | 120 | 1.6 | 8.0 | 0.00 | 0.00 | 0.00 | 58 | 1012.6 |
| 20260504203021 | 27 | 89 | 1.6 | 12.9 | 0.00 | 0.00 | 0.00 | 58 | 1012.7 |
| 20260504202504 | 27 | 203 | 0.0 | 12.9 | 0.00 | 0.00 | 0.00 | 63 | 1012.8 |
| 20260504202008 | 27 | 89 | 3.2 | 9.7 | 0.00 | 0.00 | 0.00 | 60 | 1012.8 |
| 20260504201515 | 27 | 226 | 0.0 | 4.8 | 0.00 | 0.00 | 0.00 | 59 | 1013.1 |
| 20260504201005 | 27 | 263 | 0.0 | 6.4 | 0.00 | 0.00 | 0.00 | 60 | 1013.2 |
| 20260504200507 | 27 | 298 | 1.6 | 8.0 | 0.00 | 0.00 | 0.00 | 60 | 1013.3 |
| 20260504200008 | 27 | 264 | 1.6 | 8.0 | 0.00 | 0.00 | 0.00 | 58 | 1013.3 |
| 20260504195508 | 27 | 209 | 1.6 | 6.4 | 0.00 | 0.00 | 0.00 | 60 | 1013.4 |
| 20260504195009 | 27 | 294 | 0.0 | 11.3 | 0.00 | 0.00 | 0.00 | 61 | 1013.5 |
| 20260504194508 | 27 | 221 | 1.6 | 11.3 | 0.00 | 0.00 | 0.00 | 58 | 1013.6 |
| 20260504194006 | 27 | 149 | 3.2 | 11.3 | 0.00 | 0.00 | 0.00 | 60 | 1013.6 |
| 20260504193509 | 27 | 204 | 3.2 | 11.3 | 0.00 | 0.00 | 0.00 | 60 | 1013.6 |
| 20260504193012 | 26 | 162 | 0.0 | 9.7 | 0.00 | 0.00 | 0.00 | 59 | 1013.7 |
| 20260504192508 | 26 | 243 | 1.6 | 14.5 | 0.00 | 0.00 | 0.00 | 59 | 1013.8 |
| 20260504192003 | 27 | 85 | 3.2 | 14.5 | 0.00 | 0.00 | 0.00 | 59 | 1013.8 |
| 20260504191526 | 27 | 116 | 1.6 | 4.8 | 0.00 | 0.00 | 0.00 | 57 | 1013.8 |
| 20260504191006 | 27 | 115 | 1.6 | 8.0 | 0.00 | 0.00 | 0.00 | 56 | 1014.0 |
| 20260504190504 | 27 | 219 | 1.6 | 8.0 | 0.00 | 0.00 | 0.00 | 58 | 1014.1 |
| 20260504190021 | 27 | 203 | 1.6 | 6.4 | 0.00 | 0.00 | 0.00 | 57 | 1014.2 |
| 20260504185503 | 27 | 212 | 1.6 | 8.0 | 0.00 | 0.00 | 0.00 | 57 | 1014.3 |
| 20260504185007 | 27 | 274 | 3.2 | 8.0 | 0.00 | 0.00 | 0.00 | 56 | 1014.2 |
| 20260504184519 | 27 | 94 | 0.0 | 12.9 | 0.00 | 0.00 | 0.00 | 58 | 1014.2 |
| 20260504184003 | 27 | 233 | 1.6 | 12.9 | 0.00 | 0.00 | 0.00 | 59 | 1014.2 |
| 20260504183512 | 26 | 125 | 1.6 | 11.3 | 0.00 | 0.00 | 0.00 | 57 | 1014.5 |
| 20260504183017 | 26 | 122 | 0.0 | 11.3 | 0.00 | 0.00 | 0.00 | 60 | 1014.5 |
| 20260504182505 | 27 | 206 | 1.6 | 11.3 | 0.00 | 0.00 | 0.00 | 56 | 1014.6 |
| 20260504182011 | 27 | 95 | 1.6 | 11.3 | 0.00 | 0.00 | 0.00 | 58 | 1014.5 |
| 20260504181513 | 27 | 148 | 1.6 | 11.3 | 0.00 | 0.00 | 0.00 | 56 | 1014.5 |
| 20260504181008 | 26 | 264 | 3.2 | 11.3 | 0.00 | 0.00 | 0.00 | 60 | 1014.6 |
| 20260504180509 | 26 | 238 | 1.6 | 8.0 | 0.00 | 0.00 | 0.00 | 62 | 1014.7 |
| 20260504180012 | 26 | 143 | 1.6 | 9.7 | 0.00 | 0.00 | 0.00 | 63 | 1014.8 |
| 20260504175508 | 26 | 184 | 1.6 | 14.5 | 0.00 | 0.00 | 0.00 | 60 | 1014.8 |
| 20260504175004 | 26 | 167 | 3.2 | 14.5 | 0.00 | 0.00 | 0.00 | 60 | 1014.9 |
| 20260504174510 | 26 | 197 | 1.6 | 8.0 | 0.00 | 0.00 | 0.00 | 60 | 1015.1 |
| 20260504174009 | 26 | 127 | 1.6 | 8.0 | 0.00 | 0.00 | 0.00 | 59 | 1015.0 |
| 20260504173506 | 26 | 163 | 1.6 | 9.7 | 0.00 | 0.00 | 0.00 | 59 | 1015.0 |
| 20260504173026 | 25 | 143 | 0.0 | 12.9 | 0.00 | 0.00 | 0.00 | 63 | 1015.2 |
| 20260504172505 | 25 | 216 | 3.2 | 12.9 | 0.00 | 0.00 | 0.00 | 61 | 1015.3 |
| 20260504172004 | 25 | 182 | 1.6 | 8.0 | 0.00 | 0.00 | 0.00 | 61 | 1015.2 |
| 20260504171523 | 25 | 129 | 1.6 | 6.4 | 0.00 | 0.00 | 0.00 | 62 | 1015.3 |
| 20260504171009 | 25 | 75 | 1.6 | 11.3 | 0.00 | 0.00 | 0.00 | 63 | 1015.4 |
| 20260504170505 | 25 | 34 | 3.2 | 11.3 | 0.00 | 0.00 | 0.00 | 61 | 1015.5 |
| 20260504151005 | 21 | 194 | 1.6 | 11.3 | 0.00 | 0.00 | 0.00 | 71 | 1016.3 |
| 20260504150504 | 21 | 238 | 1.6 | 8.0 | 0.00 | 0.00 | 0.00 | 72 | 1016.3 |